Home > Weather > Hollabrunn > Past weeks

Flag for Austria Past Weather in Hollabrunn, Lower Austria, Austria — Yesterday and Last 2 Weeks

Now
81 °F

Warm.


Feels Like: 81 °F
Forecast: 60 / 86 °F
Wind: 7 mph from West

Location: Retz

Current Time: Jul 29, 2016 at 6:06:40 PM

Latest Report: Jul 29, 2016 at 5:00 PM


Visibility: N/A

Pressure: 29.87 "Hg

Humidity: 46%

Dew Point: 58 °F

Location of HollabrunnLocation

Past Weather in Hollabrunn — Graph

°F

Hollabrunn Temperature Yesterday

Maximum temperature yesterday: 80 °F (at 5:00 PM)
Minimum temperature yesterday: 65 °F (at 4:00 AM)
Average temperature yesterday: 71 °F

High & Low Weather Summary for the Past Weeks

 TemperatureHumidityPressure
High84 °F (Jul 23, 5:00 PM)98% (Jul 22, 2:00 AM)30.23 "Hg (Jul 22, 2:00 AM)
Low52 °F (Jul 15, 5:00 AM)41% (Jul 18, 3:00 PM)29.88 "Hg (Jul 29, 4:00 PM)
Average70 °F70%30.03 "Hg
* Reported Jul 14 4:00 PM — Jul 29 4:00 PM, Hollabrunn, Weather by CustomWeather, © 2016

Note: Actual official high and low records may vary slightly from our data, if they occured in-between our weather recording intervals... More about our weather records

Advertising

Hollabrunn Weather History for the Previous 24 Hours

Scroll right to see more
 ConditionsComfort  
Time TempWeatherWind HumidityBarometerVisibility
4:00 PM
Fri, Jul 29
81 °FWarm.8 mph45%29.88 "HgN/A
3:00 PM78 °FWarm.8 mph48%29.90 "HgN/A
2:00 PM77 °FPartly sunny.5 mph63%29.91 "Hg16 mi
1:00 PM73 °FMild.6 mph67%29.92 "HgN/A
12:00 PM77 °FWarm.2 mph55%29.93 "HgN/A
11:00 AM75 °FMild.5 mph59%29.94 "HgN/A
10:00 AM75 °FMild.2 mph59%29.95 "HgN/A
9:00 AM72 °FMild.2 mph62%29.95 "HgN/A
8:00 AM68 °FPassing clouds.1 mph71%29.96 "Hg16 mi
7:00 AM64 °FScattered clouds.1 mph76%29.97 "Hg12 mi
6:00 AM63 °FMild.No wind79%29.96 "HgN/A
5:00 AM64 °FMild.No wind78%29.96 "HgN/A
4:00 AM66 °FMild.8 mph71%29.94 "HgN/A
2:00 AM67 °FMild.7 mph69%29.95 "HgN/A
1:00 AM65 °FMild.1 mph77%29.96 "HgN/A
12:00 AM68 °FMild.1 mph71%29.96 "HgN/A
11:00 PM
Thu, Jul 28
70 °FMild.7 mph65%29.96 "HgN/A
10:00 PM70 °FMild.7 mph69%29.96 "HgN/A
9:00 PM71 °FMild.7 mph68%29.95 "HgN/A
8:00 PM73 °FPartly sunny.6 mph60%29.94 "Hg12 mi
7:00 PM75 °FMild.5 mph63%29.92 "HgN/A
6:00 PM78 °FWarm.No wind50%29.93 "HgN/A
Weather by CustomWeather, © 2016

See weather overviewHow to use our weather pages